Hawarden, United Kingdom

5:24 PM BST on May 22, 2017 (GMT +0100)
Hawarden

Weather History for EGNR - October, 2011

Change the Weather History Date:

Wednesday, October 19, 2011

  Actual Average (EGGP) Record (EGGP)
Temperature  
Mean Temperature 47 °F -  
Max Temperature 50 °F 51 °F 66 °F (1997)
Min Temperature 44 °F 42 °F 37 °F (2002)
Degree Days  
Heating Degree Days 18    
Moisture  
Dew Point 40 °F    
Average Humidity 75    
Maximum Humidity 93    
Minimum Humidity 45    
Precipitation  
Precipitation 0.28 in - - ()
Sea Level Pressure  
Sea Level Pressure 30.07 in    
Wind  
Wind Speed 10 mph ()    
Max Wind Speed 20 mph    
Max Gust Speed 33 mph    
Visibility 8.2 miles    
Events Rain    
Averages and records for this station are not official NWS values.
T = Trace of Precipitation, MM = Missing Value Source: Averaged Metar Reports

Daily Weather History Graph

Daily Weather History Graph

Search for Another Location

Airport or City:

Trip Planner

Search our weather history database for the weather conditions in past years. The results will help you decide how hot, cold, wet, or windy it might be!

Date:

Astronomy

Oct. 19, 2011 Rise Set
Actual Time 7:44 AM BST 6:08 PM BST
Civil Twilight 7:09 AM BST 6:43 PM BST
Nautical Twilight 6:29 AM BST 7:23 PM BST
Astronomical Twilight 5:49 AM BST 8:03 PM BST
Moon 11:15 PM BST (10/19) 2:32 PM BST (10/19)
Length of Visible Light 11h 33m
Length of Day
10h 23m
Waning Gibbous, 57% of the Moon is Illuminated
Oct 19
Waning Gibbous
Oct 20
Last Quarter
Oct 26
New
Nov 2
First Quarter
Nov 10
Full

Hourly Weather History & Observations

Time (BST) Temp. Windchill Dew Point Humidity Pressure Visibility Wind Dir Wind Speed Gust Speed Precip Events Conditions
12:50 AM 46 °F - 41 °F 76% 29.87 in 19 mi West 12.7 mph - -   Scattered Clouds
3:50 AM 48 °F - 40 °F 64% 29.91 in 12 mi NW 10.4 mph - -   Partly Cloudy
6:50 AM 46 °F - 39 °F 69% 29.97 in 17 mi WNW 8.1 mph - -  
7:20 AM 48.2 °F - 39.2 °F 71% 29.98 in 6.2 mi WNW 5.8 mph - N/A   Partly Cloudy
7:50 AM 46.4 °F 43.5 °F 39.2 °F 76% 29.98 in 6.2 mi WNW 5.8 mph - N/A   Partly Cloudy
8:20 AM 46.4 °F 42.4 °F 39.2 °F 76% 30.01 in 6.2 mi West 8.1 mph - N/A   Partly Cloudy
8:50 AM 46.4 °F 41.5 °F 39.2 °F 76% 30.01 in 6.2 mi West 10.4 mph - N/A   Scattered Clouds
9:20 AM 46.4 °F 40.7 °F 41.0 °F 81% 30.01 in 6.2 mi West 12.7 mph - N/A   Scattered Clouds
9:50 AM 44 °F - 40 °F 79% 30.03 in 2 mi West 18.4 mph - -   Mostly Cloudy
9:50 AM 44.6 °F 36.6 °F 39.2 °F 81% 30.01 in 5.6 mi West 19.6 mph 33.4 mph N/A Rain Light Rain
10:20 AM 46.4 °F 41.9 °F 42.8 °F 87% 30.04 in 5.6 mi West 9.2 mph - N/A Rain Rain
10:50 AM 46.4 °F 41.5 °F 41.0 °F 81% 30.04 in 6.2 mi West 10.4 mph - N/A   Scattered Clouds
11:20 AM 46.4 °F 42.4 °F 42.8 °F 87% 30.04 in 5.6 mi West 8.1 mph - N/A Rain Heavy Rain
11:50 AM 44.6 °F 41.4 °F 42.8 °F 93% 30.06 in 6.2 mi NNW 5.8 mph - N/A   Scattered Clouds
12:20 PM 44.6 °F 39.2 °F 41.0 °F 87% 30.06 in 6.2 mi NW 10.4 mph 28.8 mph N/A Rain Rain Showers
12:50 PM 46 °F - 42 °F 81% 30.09 in 22 mi West 5.8 mph - -   Scattered Clouds
12:50 PM 48.2 °F - 42.8 °F 82% 30.06 in 6.2 mi North 10.4 mph - N/A   Scattered Clouds
1:20 PM 50.0 °F - 44.6 °F 82% 30.09 in 6.2 mi North 6.9 mph - N/A   Scattered Clouds
1:50 PM 48.2 °F - 41.0 °F 76% 30.09 in 6.2 mi NW 12.7 mph - N/A   Scattered Clouds
2:20 PM 50.0 °F - 41.0 °F 71% 30.09 in 6.2 mi NW 16.1 mph - N/A   Partly Cloudy
2:50 PM 51.8 °F - 39.2 °F 62% 30.09 in 6.2 mi NW 18.4 mph - N/A   Partly Cloudy
3:20 PM 50.0 °F - 37.4 °F 62% 30.12 in 6.2 mi NNW 15.0 mph - N/A   Partly Cloudy
3:50 PM 50 °F - 35 °F 45% 30.14 in 19 mi NNW 17.3 mph - -   Scattered Clouds
3:50 PM 51.8 °F - 37.4 °F 58% 30.12 in 6.2 mi NNW 17.3 mph 28.8 mph N/A   Partly Cloudy
4:20 PM 50.0 °F - 37.4 °F 62% 30.15 in 6.2 mi NNW 18.4 mph 29.9 mph N/A Rain Light Rain Showers
4:50 PM 46.4 °F 41.1 °F 37.4 °F 71% 30.15 in 6.2 mi NW 11.5 mph - N/A   Scattered Clouds
5:20 PM 46.4 °F 41.5 °F 39.2 °F 76% 30.15 in 6.2 mi WNW 10.4 mph - N/A   Scattered Clouds
5:50 PM 46.4 °F 41.5 °F 41.0 °F 81% 30.18 in 6.2 mi WNW 10.4 mph - N/A Rain Light Rain Showers
6:20 PM 46.4 °F 42.9 °F 41.0 °F 81% 30.18 in 6.2 mi NW 6.9 mph - N/A   Scattered Clouds
6:50 PM 44 °F - 40 °F 79% 30.21 in 19 mi West 9.2 mph - -   Scattered Clouds
6:50 PM 44.6 °F 41.4 °F 39.2 °F 81% 30.21 in 6.2 mi West 5.8 mph - N/A   Partly Cloudy
9:50 PM 44 °F - 38 °F 74% 30.26 in 19 mi WNW 8.1 mph - -   Mostly Cloudy